GW3210 Weather Reports


time (UTC)temp
C
wind
direction
speed
KPH
gust
KPH
rain 1hr
cm
rain 24hr
cm
rain mn
cm
humidity
%
barometer
mb
20260502212117 20 225 3.2 6.4 0.00 0.03 0.03 50 1015.4
20260502211116 20 293 11.3 12.9 0.00 0.03 0.03 50 1015.5
20260502210116 19 225 3.2 4.8 0.00 0.03 0.03 51 1015.8
20260502205117 18 0 4.8 8.0 0.00 0.03 0.03 54 1015.8
20260502204116 18 270 6.4 11.3 0.00 0.03 0.03 55 1016.0
20260502203407 17 315 4.8 8.0 0.00 0.03 0.03 56 1016.0
20260502203216 17 293 6.4 9.7 0.00 0.03 0.03 56 1016.0
20260502202216 18 45 1.6 3.2 0.00 0.03 0.03 53 1016.2
20260502201216 18 270 8.0 12.9 0.00 0.03 0.03 53 1016.2
20260502200216 17 338 3.2 4.8 0.00 0.03 0.03 57 1016.2
20260502195216 17 315 1.6 3.2 0.00 0.03 0.03 56 1016.3
20260502194257 16 135 3.2 3.2 0.00 0.03 0.03 55 1016.5
20260502193216 16 225 3.2 4.8 0.00 0.03 0.03 58 1016.6
20260502192216 16 338 6.4 9.7 0.00 0.03 0.03 59 1016.7
20260502191216 15 270 9.7 12.9 0.00 0.03 0.03 61 1016.8
20260502190216 15 293 9.7 14.5 0.00 0.03 0.03 61 1016.9
20260502185216 13 270 4.8 6.4 0.00 0.03 0.03 64 1016.6
20260502184216 13 293 3.2 6.4 0.00 0.03 0.03 65 1016.7
20260502183217 12 270 3.2 6.4 0.00 0.03 0.03 65 1016.8
20260502182216 12 135 1.6 3.2 0.00 0.03 0.03 64 1017.1
20260502181216 12 338 6.4 8.0 0.00 0.03 0.03 65 1017.3
20260502180216 12 0 1.6 3.2 0.00 0.03 0.03 65 1017.4
20260502170216 11 293 3.2 4.8 0.00 0.03 0.03 69 1017.3
20260502164256 10 293 3.2 4.8 0.00 0.03 0.03 70 1017.5
20260502163216 10 315 3.2 4.8 0.00 0.03 0.03 71 1017.5
20260502162216 10 23 3.2 6.4 0.00 0.03 0.03 73 1017.6
20260502161216 10 315 3.2 4.8 0.00 0.03 0.03 74 1017.6
20260502160216 10 0 3.2 4.8 0.00 0.03 0.03 74 1017.7
20260502152216 10 315 3.2 4.8 0.00 0.03 0.03 78 1017.9
20260502151216 10 315 3.2 4.8 0.00 0.03 0.03 79 1017.9
20260502150216 10 293 3.2 3.2 0.00 0.03 0.03 79 1017.9
20260502130215 9 315 3.2 4.8 0.00 0.03 0.03 82 1017.7
20260502123217 9 315 3.2 4.8 0.00 0.03 0.03 82 1017.6
20260502122217 9 293 4.8 6.4 0.00 0.03 0.03 82 1017.6
20260502121258 9 315 4.8 8.0 0.00 0.03 0.03 82 1017.6
20260502120217 9 315 3.2 3.2 0.00 0.03 0.03 81 1017.5
20260502115237 9 293 3.2 4.8 0.00 0.03 0.03 81 1017.6
20260502114217 9 293 4.8 6.4 0.00 0.03 0.03 81 1017.5
20260502113217 9 315 4.8 8.0 0.00 0.03 0.03 81 1017.4
20260502112217 9 315 4.8 11.3 0.00 0.03 0.03 81 1017.5
20260502111217 9 315 6.4 9.7 0.00 0.03 0.03 80 1017.4
20260502110238 9 270 4.8 6.4 0.00 0.03 0.03 80 1017.6
20260502105217 9 270 3.2 4.8 0.00 0.03 0.03 78 1017.5
20260502104217 9 293 4.8 6.4 0.00 0.03 0.03 77 1017.5
20260502103237 9 338 3.2 4.8 0.00 0.03 0.03 76 1017.4
20260502102238 9 315 4.8 8.0 0.00 0.03 0.03 76 1017.3
20260502101217 9 0 4.8 6.4 0.00 0.03 0.03 76 1017.6
20260502100217 9 293 3.2 4.8 0.03 0.03 0.03 76 1017.9
20260502091217 10 203 3.2 4.8 0.03 0.03 0.03 69 1018.9
20260502090217 10 158 12.9 19.3 0.00 0.00 0.00 68 1019.2
20260502071216 10 315 9.7 14.5 0.00 0.00 0.00 65 1018.3
20260502070217 10 293 8.0 11.3 0.00 0.00 0.00 65 1018.2
20260502065215 10 270 8.0 14.5 0.00 0.00 0.00 65 1018.2
20260502064218 10 315 6.4 8.0 0.00 0.00 0.00 65 1018.3
20260502063218 10 293 8.0 12.9 0.00 0.00 0.00 65 1018.3
20260502062238 10 293 8.0 12.9 0.00 0.00 0.00 65 1018.3
20260502061217 11 293 9.7 19.3 0.00 0.00 0.00 64 1018.1
20260502060218 11 315 9.7 14.5 0.00 0.00 0.00 63 1018.0
20260502055218 11 315 12.9 19.3 0.00 0.00 0.00 62 1017.9
20260502054217 11 315 8.0 12.9 0.00 0.00 0.00 62 1018.2
20260502053217 11 315 9.7 17.7 0.00 0.00 0.00 61 1018.0
20260502052238 12 315 12.9 17.7 0.00 0.00 0.00 61 1017.7
20260502051215 12 338 6.4 12.9 0.00 0.00 0.00 60 1017.5
20260502050237 12 315 12.9 20.9 0.00 0.00 0.00 60 1017.5
20260502045217 12 315 16.1 22.5 0.00 0.00 0.00 60 1017.3
20260502044218 12 338 11.3 17.7 0.00 0.00 0.00 59 1017.4
20260502043217 13 293 11.3 20.9 0.00 0.00 0.00 59 1017.3
20260502042217 13 293 14.5 20.9 0.00 0.00 0.00 58 1017.2
20260502041217 13 338 11.3 19.3 0.00 0.00 0.00 57 1017.0
20260502040217 14 338 12.9 24.1 0.00 0.00 0.00 57 1017.0
20260502035217 15 293 8.0 14.5 0.00 0.00 0.00 56 1016.9
20260502034217 15 293 8.0 14.5 0.00 0.00 0.00 55 1016.8
20260502033217 15 315 11.3 19.3 0.00 0.00 0.00 53 1016.7
20260502032217 16 0 9.7 14.5 0.00 0.00 0.00 53 1016.7
20260502031218 16 338 8.0 14.5 0.00 0.00 0.00 53 1016.6
20260502030217 17 315 8.0 14.5 0.00 0.00 0.00 52 1016.4
20260502025217 17 315 11.3 17.7 0.00 0.00 0.00 51 1016.3
20260502024217 17 338 6.4 9.7 0.00 0.00 0.00 50 1016.3
20260502023217 18 315 9.7 14.5 0.00 0.00 0.00 49 1016.2
20260502022217 18 0 8.0 11.3 0.00 0.00 0.00 48 1016.1
20260502021217 19 315 9.7 14.5 0.00 0.00 0.00 46 1016.0
20260502020217 20 315 9.7 16.1 0.00 0.00 0.00 42 1016.0
20260502015217 20 315 8.0 12.9 0.00 0.00 0.00 39 1016.0
20260502014217 20 338 9.7 12.9 0.00 0.00 0.00 38 1016.1
20260502013217 21 338 8.0 14.5 0.00 0.00 0.00 35 1016.0
20260502012216 21 338 9.7 16.1 0.00 0.00 0.00 35 1016.0
20260502011217 22 338 6.4 11.3 0.00 0.00 0.00 36 1016.0
20260502010217 22 315 9.7 19.3 0.00 0.00 0.00 35 1015.9
20260502005217 23 315 9.7 17.7 0.00 0.00 0.00 36 1015.9
20260502004217 23 23 8.0 16.1 0.00 0.00 0.00 36 1015.8
20260502003237 23 293 9.7 17.7 0.00 0.00 0.00 34 1015.9
20260502002237 24 338 8.0 12.9 0.00 0.00 0.00 34 1015.9
20260502001217 24 338 9.7 17.7 0.00 0.00 0.00 34 1015.8
20260502000218 24 293 6.4 11.3 0.00 0.00 0.00 32 1015.8
20260501235216 24 293 12.9 19.3 0.00 0.00 0.00 30 1015.8
20260501234217 24 293 4.8 8.0 0.00 0.00 0.00 33 1015.9
20260501233217 24 315 6.4 17.7 0.00 0.00 0.00 32 1015.9
20260501232216 24 338 6.4 9.7 0.00 0.00 0.00 32 1016.0
20260501231217 23 270 8.0 14.5 0.00 0.00 0.00 32 1016.1
20260501230217 23 315 4.8 9.7 0.00 0.00 0.00 34 1016.2
20260501225216 23 270 4.8 9.7 0.00 0.00 0.00 33 1016.5
20260501224217 23 45 1.6 1.6 0.00 0.00 0.00 34 1016.5
20260501223217 23 338 6.4 12.9 0.00 0.00 0.00 36 1016.5
20260501222217 23 338 6.4 9.7 0.00 0.00 0.00 35 1016.8
20260501221237 22 248 4.8 8.0 0.00 0.00 0.00 34 1017.0
20260501220217 22 0 6.4 8.0 0.00 0.00 0.00 36 1017.0
20260501215216 22 248 8.0 11.3 0.00 0.00 0.00 34 1017.2
20260501214217 22 315 3.2 6.4 0.00 0.00 0.00 35 1017.3
20260501213216 22 0 6.4 9.7 0.00 0.00 0.00 36 1017.4
20260501212216 22 248 3.2 4.8 0.00 0.00 0.00 38 1017.4